AB5KT-1 Weather Reports


Display with metric or nautical units.
time (UTC)temp
F
wind
direction
speed
MPH
gust
MPH
rain 1hr
in
rain 24hr
in
rain mn
in
humidity
%
barometer
mb
20260905104028 78 124 0.0 1.0 0.00 0.00 0.00 84 1014.1
20260905104024 78 124 0.0 2.0 0.00 0.00 0.00 84 1014.2
20260905103028 78 124 0.0 2.0 0.00 0.00 0.00 84 1014.0
20260905103024 78 124 0.0 2.0 0.00 0.00 0.00 84 1014.0
20260905102628 78 125 0.0 4.0 0.00 0.00 0.00 84 1013.9
20260905101528 78 125 0.0 2.0 0.00 0.00 0.00 83 1014.0
20260905101524 78 125 0.0 4.0 0.00 0.00 0.00 83 1014.0
20260905100522 78 125 0.0 4.0 0.00 0.00 0.00 83 1014.0
20260905100022 78 125 1.0 4.0 0.00 0.00 0.00 83 1014.0
20260905095522 78 132 0.0 1.0 0.00 0.00 0.00 84 1014.1
20260905095027 79 133 0.0 4.0 0.00 0.00 0.00 83 1014.0
20260905095022 79 133 0.0 1.0 0.00 0.00 0.00 83 1014.0
20260905094024 79 119 1.0 2.0 0.00 0.00 0.00 83 1014.0
20260905094020 79 133 1.0 4.0 0.00 0.00 0.00 83 1014.0
20260905093020 79 124 0.0 2.0 0.00 0.00 0.00 83 1014.0
20260905092521 79 124 0.0 2.0 0.00 0.00 0.00 83 1014.0
20260905092017 79 130 0.0 2.0 0.00 0.00 0.00 83 1014.0
20260905091516 79 130 0.0 2.0 0.00 0.00 0.00 83 1013.9
20260905091016 79 112 0.0 2.0 0.00 0.00 0.00 83 1013.8
20260905090516 79 117 0.0 2.0 0.00 0.00 0.00 83 1013.8
20260905090016 79 147 1.0 2.0 0.00 0.00 0.00 83 1013.7
20260905085516 79 148 0.0 2.0 0.00 0.00 0.00 83 1013.7
20260905085020 79 117 0.0 2.0 0.00 0.00 0.00 83 1014.0
20260905085016 79 117 0.0 2.0 0.00 0.00 0.00 83 1013.9
20260905084621 79 126 1.0 2.0 0.00 0.00 0.00 83 1013.9
20260905083520 79 113 1.0 4.0 0.00 0.00 0.00 83 1014.1
20260905083516 79 128 0.0 4.0 0.00 0.00 0.00 83 1014.0
20260905082514 79 111 1.0 5.0 0.00 0.00 0.00 83 1014.1
20260905082014 79 110 1.0 5.0 0.00 0.00 0.00 83 1014.0
20260905081514 79 120 1.0 4.0 0.00 0.00 0.00 83 1014.0
20260905081014 79 123 1.0 4.0 0.00 0.00 0.00 83 1014.1
20260905080512 79 111 0.0 2.0 0.00 0.00 0.00 82 1014.1
20260905080011 79 111 0.0 2.0 0.00 0.00 0.00 82 1014.2
20260905075510 79 109 0.0 4.0 0.00 0.00 0.00 82 1014.1
20260905075011 79 109 0.0 4.0 0.00 0.00 0.00 82 1014.1
20260905074510 79 108 1.0 5.0 0.00 0.00 0.00 82 1014.1
20260905074010 79 109 1.0 5.0 0.00 0.00 0.00 81 1014.1
20260905073509 79 126 1.0 5.0 0.00 0.00 0.00 81 1014.1
20260905073008 80 110 1.0 4.0 0.00 0.00 0.00 81 1014.2
20260905072512 80 122 0.0 2.0 0.00 0.00 0.00 80 1014.3
20260905072508 80 92 0.0 2.0 0.00 0.00 0.00 81 1014.3
20260905071508 80 122 1.0 5.0 0.00 0.00 0.00 80 1014.4
20260905071009 80 122 1.0 5.0 0.00 0.00 0.00 80 1014.4
20260905070508 80 116 1.0 4.0 0.00 0.00 0.00 80 1014.5
20260905070013 80 123 0.0 2.0 0.00 0.00 0.00 79 1014.5
20260905070009 80 119 0.0 4.0 0.00 0.00 0.00 79 1014.5
20260905065008 80 123 1.0 2.0 0.00 0.00 0.00 79 1014.5
20260905064507 80 126 0.0 2.0 0.00 0.00 0.00 79 1014.6
20260905064010 80 112 1.0 6.0 0.00 0.00 0.00 78 1014.6
20260905064006 80 113 1.0 6.0 0.00 0.00 0.00 78 1014.5
20260905063610 81 125 1.0 5.0 0.00 0.00 0.00 78 1014.5
20260905062509 81 117 1.0 7.0 0.00 0.00 0.00 78 1014.4
20260905062505 81 116 2.0 8.0 0.00 0.00 0.00 77 1014.5
20260905061502 81 114 2.0 8.0 0.00 0.00 0.00 77 1014.5
20260905061003 81 103 2.0 8.0 0.00 0.00 0.00 77 1014.4
20260905060507 81 120 1.0 5.0 0.00 0.00 0.00 75 1014.4
20260905060503 81 114 1.0 5.0 0.00 0.00 0.00 76 1014.5
20260905055502 82 130 2.0 7.0 0.00 0.00 0.00 75 1014.4
20260905055003 82 119 2.0 7.0 0.00 0.00 0.00 75 1014.4
20260905054502 82 131 2.0 7.0 0.00 0.00 0.00 75 1014.5
20260905054002 82 133 2.0 6.0 0.00 0.00 0.00 74 1014.4
20260905053502 82 80 2.0 9.0 0.00 0.00 0.00 74 1014.4
20260905053000 82 111 2.0 9.0 0.00 0.00 0.00 74 1014.5
20260905052500 82 123 2.0 7.0 0.00 0.00 0.00 73 1014.5
20260905052005 82 164 1.0 5.0 0.00 0.00 0.00 72 1014.5
20260905052001 82 121 1.0 5.0 0.00 0.00 0.00 72 1014.5
20260905051000 83 219 1.0 5.0 0.00 0.00 0.00 72 1014.6
20260905050501 83 134 2.0 6.0 0.00 0.00 0.00 71 1014.5
20260905045959 83 117 2.0 7.0 0.00 0.00 0.00 70 1014.5
20260905045459 83 124 2.0 7.0 0.00 0.00 0.00 69 1014.3
20260905045000 83 169 2.0 10.0 0.00 0.00 0.00 68 1014.4
20260905044504 83 128 2.0 9.0 0.00 0.00 0.00 67 1014.4
20260905044502 83 88 3.0 10.0 0.00 0.00 0.00 68 1014.4
20260905043457 83 128 2.0 9.0 0.00 0.00 0.00 67 1014.4
20260905042957 84 114 2.0 6.0 0.00 0.00 0.00 66 1014.5
20260905042459 84 122 2.0 6.0 0.00 0.00 0.00 65 1014.5
20260905041957 84 107 2.0 7.0 0.00 0.00 0.00 65 1014.5
20260905041503 84 123 2.0 7.0 0.00 0.00 0.00 64 1014.4
20260905041458 84 148 2.0 7.0 0.00 0.00 0.00 64 1014.4
20260905040458 84 146 2.0 7.0 0.00 0.00 0.00 63 1014.3
20260905035958 84 117 2.0 8.0 0.00 0.00 0.00 62 1014.3
20260905035456 85 95 2.0 8.0 0.00 0.00 0.00 62 1014.2
20260905034955 85 121 2.0 7.0 0.00 0.00 0.00 63 1014.2
20260905034456 85 119 2.0 7.0 0.00 0.00 0.00 63 1014.2
20260905033958 85 113 2.0 7.0 0.00 0.00 0.00 64 1014.2
20260905033954 85 136 2.0 7.0 0.00 0.00 0.00 63 1014.2
20260905032952 85 64 2.0 8.0 0.00 0.00 0.00 64 1014.3
20260905032452 85 83 2.0 8.0 0.00 0.00 0.00 64 1014.1
20260905031950 85 121 3.0 10.0 0.00 0.00 0.00 64 1014.1
20260905031450 85 112 3.0 10.0 0.00 0.00 0.00 64 1014.0
20260905030947 85 99 2.0 7.0 0.00 0.00 0.00 64 1014.0
20260905030446 85 162 3.0 8.0 0.00 0.00 0.00 64 1014.0
20260905025946 85 91 3.0 8.0 0.00 0.00 0.00 63 1013.9
20260905025445 85 124 3.0 7.0 0.00 0.00 0.00 63 1013.9
20260905024943 85 103 3.0 10.0 0.00 0.00 0.00 63 1013.7
20260905024444 85 118 3.0 10.0 0.00 0.00 0.00 62 1013.6
20260905023943 85 98 3.0 9.0 0.00 0.00 0.00 62 1013.4
20260905023443 85 111 2.0 8.0 0.00 0.00 0.00 61 1013.4
20260905022944 85 101 2.0 7.0 0.00 0.00 0.00 61 1013.4
20260905022444 85 76 2.0 8.0 0.00 0.00 0.00 61 1013.3
20260905021943 86 136 3.0 9.0 0.00 0.00 0.00 60 1013.3
20260905021444 86 115 3.0 9.0 0.00 0.00 0.00 61 1013.2
20260905020944 85 78 3.0 8.0 0.00 0.00 0.00 61 1013.1
20260905020443 85 64 3.0 8.0 0.00 0.00 0.00 61 1013.1
20260905015944 85 76 3.0 7.0 0.00 0.00 0.00 62 1012.9
20260905015444 85 67 2.0 7.0 0.00 0.00 0.00 62 1012.9
20260905014944 85 84 1.0 7.0 0.00 0.00 0.00 63 1012.8
20260905014444 85 91 0.0 4.0 0.00 0.00 0.00 64 1012.8
20260905013948 85 98 0.0 2.0 0.00 0.00 0.00 65 1012.7
20260905013944 84 98 0.0 1.0 0.00 0.00 0.00 65 1012.8
20260905012944 85 98 0.0 2.0 0.00 0.00 0.00 65 1012.7
20260905012442 85 98 0.0 1.0 0.00 0.00 0.00 65 1012.6
20260905011941 85 98 0.0 1.0 0.00 0.00 0.00 65 1012.6
20260905011446 85 98 0.0 1.0 0.00 0.00 0.00 64 1012.6
20260905011442 85 98 0.0 1.0 0.00 0.00 0.00 64 1012.6
20260905010442 85 98 0.0 1.0 0.00 0.00 0.00 64 1012.7
20260905005942 86 98 0.0 1.0 0.00 0.00 0.00 64 1012.7
20260905005441 86 98 0.0 2.0 0.00 0.00 0.00 63 1012.6
20260905004940 86 98 0.0 2.0 0.00 0.00 0.00 63 1012.6
20260905004440 87 98 0.0 1.0 0.00 0.00 0.00 62 1012.6
20260905003940 87 98 0.0 1.0 0.00 0.00 0.00 62 1012.6
20260905003440 87 98 0.0 1.0 0.00 0.00 0.00 61 1012.6
20260905002939 88 98 0.0 1.0 0.00 0.00 0.00 60 1012.6
20260905002440 88 98 0.0 1.0 0.00 0.00 0.00 60 1012.5
20260905001940 88 98 0.0 1.0 0.00 0.00 0.00 59 1012.5
20260905001439 88 98 1.0 6.0 0.00 0.00 0.00 59 1012.5
20260905000940 89 98 1.0 6.0 0.00 0.00 0.00 59 1012.4
20260905000439 89 109 1.0 4.0 0.00 0.00 0.00 59 1012.4
20260904235935 89 143 1.0 4.0 0.00 0.00 0.00 59 1012.3
20260904235436 89 88 2.0 8.0 0.00 0.00 0.00 59 1012.3
20260904234936 89 68 3.0 8.0 0.00 0.00 0.00 59 1012.2
20260904234436 89 30 3.0 8.0 0.00 0.00 0.00 58 1012.3
20260904233933 89 72 3.0 9.0 0.00 0.00 0.00 58 1012.2
20260904233434 89 88 3.0 9.0 0.00 0.00 0.00 58 1012.1
20260904232934 90 110 4.0 9.0 0.00 0.00 0.00 58 1012.2
20260904232438 90 53 4.0 9.0 0.00 0.00 0.00 58 1012.0
20260904232434 90 107 4.0 9.0 0.00 0.00 0.00 57 1012.0
20260904231434 90 34 5.0 12.0 0.00 0.00 0.00 58 1012.0
20260904230933 90 76 5.0 12.0 0.00 0.00 0.00 58 1012.0
20260904230438 89 92 4.0 8.0 0.00 0.00 0.00 56 1012.1
20260904230434 90 42 4.0 9.0 0.00 0.00 0.00 58 1012.1
20260904225434 89 82 4.0 9.0 0.00 0.00 0.00 55 1012.2
20260904224934 89 76 4.0 9.0 0.00 0.00 0.00 55 1012.1
20260904224434 89 69 4.0 9.0 0.00 0.00 0.00 56 1012.2
20260904223932 89 50 3.0 9.0 0.00 0.00 0.00 55 1012.3
20260904223432 89 39 4.0 9.0 0.00 0.00 0.00 55 1012.3
20260904222932 89 33 4.0 9.0 0.00 0.00 0.00 56 1012.4
20260904222431 89 119 3.0 9.0 0.00 0.00 0.00 58 1012.4
20260904221926 89 67 4.0 8.0 0.00 0.00 0.00 62 1012.5
20260904221426 89 5 4.0 8.0 0.00 0.00 0.00 62 1012.6
20260904220926 89 78 4.0 10.0 0.00 0.00 0.00 65 1012.6
20260904220425 89 43 5.0 10.0 0.00 0.00 0.00 65 1012.8
20260904215926 89 65 4.0 10.0 0.00 0.00 0.00 65 1012.8
20260904215426 89 25 5.0 10.0 0.00 0.00 0.00 65 1012.8
20260904214925 89 126 6.0 10.0 0.00 0.00 0.00 66 1013.0
20260904214426 89 64 4.0 10.0 0.00 0.00 0.00 66 1013.0
20260904213924 89 91 4.0 9.0 0.00 0.00 0.00 68 1013.1
20260904213424 89 71 5.0 12.0 0.00 0.00 0.00 67 1013.1
20260904212924 89 53 4.0 12.0 0.00 0.00 0.00 65 1013.1
20260904212424 89 103 3.0 9.0 0.00 0.00 0.00 65 1013.1
20260904211924 89 80 4.0 9.0 0.00 0.00 0.00 64 1013.1
20260904211424 89 112 3.0 8.0 0.00 0.00 0.00 66 1013.2
20260904210924 89 47 2.0 7.0 0.00 0.00 0.00 67 1013.3
20260904210424 88 53 3.0 9.0 0.00 0.00 0.00 67 1013.3
20260904205930 88 65 3.0 7.0 0.00 0.00 0.00 68 1013.5
20260904205926 88 102 3.0 9.0 0.00 0.00 0.00 67 1013.3
20260904204925 89 69 3.0 7.0 0.00 0.00 0.00 65 1013.5
20260904204921 88 67 3.0 7.0 0.00 0.00 0.00 67 1013.5
20260904203922 89 21 2.0 7.0 0.00 0.00 0.00 64 1013.6
20260904203422 89 58 3.0 10.0 0.00 0.00 0.00 62 1013.6
20260904202922 90 128 4.0 10.0 0.00 0.00 0.00 61 1013.7
20260904202422 90 59 2.0 8.0 0.00 0.00 0.00 60 1013.7
20260904201922 90 105 2.0 10.0 0.00 0.00 0.00 61 1013.7
20260904201422 90 114 3.0 10.0 0.00 0.00 0.00 60 1013.7
20260904200922 90 113 3.0 8.0 0.00 0.00 0.00 59 1013.7
20260904200422 90 126 2.0 7.0 0.00 0.00 0.00 59 1013.7
20260904195920 90 82 1.0 6.0 0.00 0.00 0.00 60 1013.7
20260904195420 91 76 2.0 8.0 0.00 0.00 0.00 61 1013.7
20260904194920 92 50 3.0 9.0 0.00 0.00 0.00 60 1013.8
20260904194420 92 134 3.0 9.0 0.00 0.00 0.00 56 1013.8
20260904193920 92 95 2.0 8.0 0.00 0.00 0.00 56 1013.9
20260904193420 92 72 2.0 7.0 0.00 0.00 0.00 55 1014.0
20260904192920 92 135 3.0 8.0 0.00 0.00 0.00 54 1014.0
20260904192424 92 71 2.0 7.0 0.00 0.00 0.00 55 1014.0
20260904192420 91 113 3.0 8.0 0.00 0.00 0.00 55 1014.1
20260904191418 92 89 2.0 7.0 0.00 0.00 0.00 56 1014.1
20260904190918 92 41 2.0 7.0 0.00 0.00 0.00 57 1014.1
20260904190418 92 72 2.0 8.0 0.00 0.00 0.00 56 1014.2
20260904185918 92 90 1.0 8.0 0.00 0.00 0.00 57 1014.3
20260904185418 92 146 1.0 5.0 0.00 0.00 0.00 58 1014.2
20260904184918 92 100 2.0 8.0 0.00 0.00 0.00 58 1014.2
20260904184418 92 98 2.0 8.0 0.00 0.00 0.00 57 1014.3
20260904183918 92 113 2.0 9.0 0.00 0.00 0.00 57 1014.3
20260904183421 91 74 3.0 9.0 0.00 0.00 0.00 58 1014.4
20260904183417 92 148 2.0 6.0 0.00 0.00 0.00 57 1014.5
20260904182416 92 130 2.0 7.0 0.00 0.00 0.00 57 1014.4
20260904181916 92 119 2.0 7.0 0.00 0.00 0.00 57 1014.6
20260904181416 91 115 2.0 8.0 0.00 0.00 0.00 59 1014.6
20260904180916 91 87 2.0 8.0 0.00 0.00 0.00 59 1014.6
20260904180416 91 140 2.0 6.0 0.00 0.00 0.00 59 1014.6
20260904175916 91 95 1.0 7.0 0.00 0.00 0.00 60 1014.7
20260904175416 90 150 1.0 7.0 0.00 0.00 0.00 61 1014.8
20260904174922 90 140 3.0 9.0 0.00 0.00 0.00 62 1014.9
20260904174918 90 115 2.0 9.0 0.00 0.00 0.00 60 1014.8
20260904173914 90 144 3.0 9.0 0.00 0.00 0.00 61 1015.0
20260904173414 91 123 3.0 7.0 0.00 0.00 0.00 60 1015.1
20260904172914 90 142 3.0 8.0 0.00 0.00 0.00 61 1015.1
20260904172418 90 204 3.0 7.0 0.00 0.00 0.00 61 1015.2
20260904172414 90 235 2.0 8.0 0.00 0.00 0.00 63 1015.2
20260904171414 90 122 2.0 7.0 0.00 0.00 0.00 62 1015.4
20260904170914 89 207 1.0 5.0 0.00 0.00 0.00 64 1015.4
20260904170414 89 163 1.0 5.0 0.00 0.00 0.00 66 1015.5
20260904165912 88 144 3.0 7.0 0.00 0.00 0.00 67 1015.5
20260904165412 87 98 4.0 9.0 0.00 0.00 0.00 67 1015.5
20260904164913 87 169 3.0 9.0 0.00 0.00 0.00 67 1015.5
20260904164412 88 163 2.0 7.0 0.00 0.00 0.00 68 1015.6
20260904163912 87 134 2.0 7.0 0.00 0.00 0.00 68 1015.6
20260904163412 87 111 3.0 9.0 0.00 0.00 0.00 68 1015.7
20260904162912 87 130 2.0 9.0 0.00 0.00 0.00 68 1015.6
20260904162413 86 172 2.0 8.0 0.00 0.00 0.00 69 1015.6
20260904161910 86 122 2.0 8.0 0.00 0.00 0.00 70 1015.6
20260904161410 86 128 1.0 6.0 0.00 0.00 0.00 70 1015.7
20260904160912 86 112 1.0 6.0 0.00 0.00 0.00 72 1015.6
20260904160410 85 165 1.0 5.0 0.00 0.00 0.00 73 1015.7
20260904155910 85 124 2.0 6.0 0.00 0.00 0.00 73 1015.6
20260904155415 84 99 3.0 7.0 0.00 0.00 0.00 74 1015.5
20260904155410 84 171 3.0 7.0 0.00 0.00 0.00 74 1015.5
20260904154411 84 133 2.0 6.0 0.00 0.00 0.00 75 1015.5
20260904153908 84 131 2.0 7.0 0.00 0.00 0.00 75 1015.5
20260904153406 84 132 2.0 7.0 0.00 0.00 0.00 75 1015.5
20260904152904 83 130 1.0 6.0 0.00 0.00 0.00 75 1015.4
20260904152404 83 164 1.0 5.0 0.00 0.00 0.00 75 1015.5
20260904151904 83 134 2.0 5.0 0.00 0.00 0.00 75 1015.4
20260904151404 84 192 2.0 9.0 0.00 0.00 0.00 75 1015.4
20260904150905 84 126 2.0 9.0 0.00 0.00 0.00 75 1015.2
20260904150404 84 126 2.0 7.0 0.00 0.00 0.00 76 1015.2
20260904145902 83 130 3.0 7.0 0.00 0.00 0.00 77 1015.2
20260904145407 82 130 2.0 8.0 0.00 0.00 0.00 78 1015.2
20260904145403 83 147 3.0 8.0 0.00 0.00 0.00 77 1015.2
20260904144400 82 130 2.0 7.0 0.00 0.00 0.00 78 1015.2
20260904143905 82 216 2.0 7.0 0.00 0.00 0.00 79 1015.1
20260904143900 83 159 2.0 7.0 0.00 0.00 0.00 78 1015.2
20260904143504 82 192 2.0 7.0 0.00 0.00 0.00 80 1015.1
20260904142400 81 103 2.0 7.0 0.00 0.00 0.00 82 1015.4
20260904141858 80 109 2.0 7.0 0.00 0.00 0.00 82 1015.4
20260904141359 80 163 2.0 7.0 0.00 0.00 0.00 82 1015.4
20260904140859 80 111 2.0 6.0 0.00 0.00 0.00 82 1015.2
20260904140358 80 109 2.0 6.0 0.00 0.00 0.00 82 1015.2
20260904135857 80 82 2.0 6.0 0.00 0.00 0.00 83 1015.2
20260904135356 80 90 2.0 7.0 0.00 0.00 0.00 83 1015.1
20260904134856 80 118 2.0 7.0 0.00 0.00 0.00 83 1015.1
20260904134357 79 125 1.0 5.0 0.00 0.00 0.00 84 1015.1
20260904133901 79 122 1.0 6.0 0.00 0.00 0.00 84 1015.0
20260904133856 79 121 1.0 5.0 0.00 0.00 0.00 84 1015.0
20260904132856 79 123 2.0 9.0 0.00 0.00 0.00 84 1014.8
20260904132356 79 104 2.0 9.0 0.00 0.00 0.00 84 1014.8
20260904131856 79 128 2.0 6.0 0.00 0.00 0.00 84 1014.9
20260904131354 79 119 2.0 6.0 0.00 0.00 0.00 84 1014.8
20260904130852 79 115 2.0 6.0 0.00 0.00 0.00 84 1014.7
20260904130353 79 142 2.0 7.0 0.00 0.00 0.00 84 1014.6
20260904125854 79 115 2.0 7.0 0.00 0.00 0.00 84 1014.6
20260904125355 79 123 1.0 5.0 0.00 0.00 0.00 84 1014.6
20260904125351 79 131 1.0 5.0 0.00 0.00 0.00 84 1014.5
20260904124350 79 111 2.0 5.0 0.00 0.00 0.00 84 1014.5
20260904123850 79 124 2.0 6.0 0.00 0.00 0.00 84 1014.4
20260904123350 79 128 2.0 6.0 0.00 0.00 0.00 84 1014.3
20260904122850 79 128 1.0 6.0 0.00 0.00 0.00 84 1014.4
20260904122350 78 148 2.0 6.0 0.00 0.00 0.00 84 1014.3
20260904121850 78 115 2.0 6.0 0.00 0.00 0.00 84 1014.2
20260904121351 78 111 1.0 5.0 0.00 0.00 0.00 84 1014.3
20260904120850 78 95 2.0 6.0 0.00 0.00 0.00 84 1014.3
20260904120351 78 115 2.0 6.0 0.00 0.00 0.00 84 1014.1
20260904115848 79 103 1.0 5.0 0.00 0.00 0.00 84 1014.0
20260904115349 79 119 1.0 5.0 0.00 0.00 0.00 84 1014.0
20260904114848 79 117 2.0 5.0 0.00 0.00 0.00 84 1013.9
20260904114348 79 61 1.0 5.0 0.00 0.00 0.00 84 1014.0
20260904113848 79 113 1.0 5.0 0.00 0.00 0.00 84 1014.1
20260904113346 79 150 0.0 4.0 0.00 0.00 0.00 84 1014.0
20260904112847 79 115 0.0 2.0 0.00 0.00 0.00 84 1013.9
20260904112348 78 122 1.0 4.0 0.00 0.00 0.00 84 1013.6
20260904112344 78 115 0.0 2.0 0.00 0.00 0.00 84 1013.8
20260904111345 78 122 0.0 4.0 0.00 0.00 0.00 84 1013.6
20260904110844 78 125 0.0 4.0 0.00 0.00 0.00 84 1013.5
20260904110344 78 201 0.0 4.0 0.00 0.00 0.00 84 1013.6
20260904110340 79 120 0.0 2.0 0.00 0.00 0.00 83 1013.5
20260904105944 78 182 0.0 2.0 0.00 0.00 0.00 83 1013.6
20260904104836 79 120 0.0 2.0 0.00 0.00 0.00 83 1013.6
20260904104338 79 124 0.0 2.0 0.00 0.00 0.00 83 1013.6
20260904104334 79 120 0.0 2.0 0.00 0.00 0.00 83 1013.6